Weather History for Harlingen, TX

Change the Weather History Date:

Thursday, April 25, 2013

  Actual Average Record
Temperature  
Mean Temperature 63 °F 77 °F  
Max Temperature 67 °F 87 °F 100 °F (1945)
Min Temperature 58 °F 67 °F 52 °F (1913)
Degree Days  
Heating Degree Days 2 0  
Month to date heating degree days 10 7  
Since 1 July heating degree days 401 621  
Cooling Degree Days 0 12  
Month to date cooling degree days 231 255  
Year to date cooling degree days 586 550  
Growing Degree Days 12 (Base 50)    
Moisture  
Dew Point 58 °F    
Average Humidity 84    
Maximum Humidity 100    
Minimum Humidity 67    
Precipitation  
Precipitation 0.06 in 0.05 in 1.44 in (1981)
Month to date precipitation 0.10 1.40  
Year to date precipitation 2.90 5.16  
Sea Level Pressure  
Sea Level Pressure 30.17 in    
Wind  
Wind Speed 10 mph (NNW)    
Max Wind Speed 17 mph    
Max Gust Speed 21 mph    
Visibility 6 miles    
Events Rain    
T = Trace of Precipitation, MM = Missing Value Source: NWS Daily Summary

Daily Weather History Graph

Daily Weather History Graph

Search for Another Location

Airport:

Trip Planner

Search our weather history database for the weather conditions in past years. The results will help you decide how hot, cold, wet, or windy it might be!

Date:

Astronomy

Apr. 25, 2013 Rise Set
Actual Time 6:57 AM CDT 7:59 PM CDT
Civil Twilight 6:33 AM CDT 8:23 PM CDT
Nautical Twilight 6:05 AM CDT 8:52 PM CDT
Astronomical Twilight 5:36 AM CDT 9:21 PM CDT
Moon 8:10 PM CDT (4/25) 6:41 AM CDT (4/25)
Length of Visible Light 13h 49m
Length of Day
13h 01m
Full, 100% of the Moon is Illuminated
Apr 25
Full
Apr 25
Full
May 2
Last Quarter
May 9
New
May 17
First Quarter

Hourly Weather History & Observations

Time (CDT) Temp. Dew Point Humidity Pressure Visibility Wind Dir Wind Speed Gust Speed Precip Events Conditions
12:52 AM 57.9 °F 48.9 °F 72% 30.19 in 10.0 mi NW 12.7 mph - N/A   Overcast
1:52 AM 57.9 °F 50.0 °F 75% 30.17 in 10.0 mi NW 10.4 mph - N/A   Overcast
2:52 AM 57.9 °F 50.0 °F 75% 30.16 in 10.0 mi NW 10.4 mph - N/A   Overcast
3:30 AM 59.0 °F 51.8 °F 77% 30.15 in 10.0 mi NW 10.4 mph - N/A   Overcast
3:52 AM 59.0 °F 51.1 °F 75% 30.15 in 10.0 mi NW 11.5 mph - N/A   Overcast
4:52 AM 59.0 °F 51.1 °F 75% 30.15 in 10.0 mi NW 10.4 mph - N/A   Overcast
5:52 AM 60.1 °F 53.1 °F 78% 30.15 in 10.0 mi NW 8.1 mph - N/A   Overcast
6:20 AM 60.8 °F 53.6 °F 77% 30.15 in 9.0 mi NNW 8.1 mph - 0.00 in Rain Light Rain
6:52 AM 60.1 °F 54.0 °F 80% 30.17 in 10.0 mi NW 8.1 mph - 0.00 in   Overcast
7:52 AM 59.0 °F 53.1 °F 81% 30.19 in 10.0 mi NW 9.2 mph - N/A   Overcast
8:52 AM 61.0 °F 51.1 °F 70% 30.20 in 10.0 mi NNW 12.7 mph - N/A   Overcast
9:52 AM 62.1 °F 51.1 °F 67% 30.21 in 10.0 mi NNW 11.5 mph - N/A   Overcast
10:52 AM 62.1 °F 53.1 °F 72% 30.22 in 10.0 mi North 11.5 mph - 0.00 in Rain Light Rain
11:04 AM 62.6 °F 53.6 °F 72% 30.21 in 10.0 mi NNW 13.8 mph - 0.01 in Rain Light Rain
11:52 AM 64.0 °F 55.0 °F 73% 30.22 in 10.0 mi NNW 16.1 mph - 0.01 in   Overcast
12:43 PM 62.6 °F 57.2 °F 82% 30.21 in 4.0 mi NNW 13.8 mph - N/A   Haze
12:52 PM 63.0 °F 57.9 °F 84% 30.21 in 3.0 mi NNW 12.7 mph - N/A   Haze
1:09 PM 62.6 °F 59.0 °F 88% 30.21 in 1.0 mi NNW 13.8 mph - N/A   Overcast
1:52 PM 63.0 °F 60.1 °F 90% 30.20 in 1.0 mi NW 10.4 mph - N/A   Overcast
2:52 PM 63.0 °F 61.0 °F 93% 30.18 in 1.5 mi NW 11.5 mph - N/A   Overcast
3:20 PM 62.6 °F 60.8 °F 94% 30.16 in 1.8 mi NW 11.5 mph - 0.01 in Rain Light Rain
3:49 PM 66.2 °F 64.4 °F 94% 30.15 in 3.0 mi North 10.4 mph - 0.02 in Rain Light Rain
3:52 PM 66.9 °F 64.9 °F 93% 30.15 in 3.0 mi NNE 11.5 mph - 0.02 in Rain Light Rain
4:05 PM 66.2 °F 64.4 °F 94% 30.14 in 4.0 mi NNE 11.5 mph - 0.00 in Rain Light Rain
4:52 PM 66.0 °F 64.0 °F 93% 30.14 in 3.0 mi North 10.4 mph - 0.00 in   Overcast
5:52 PM 66.0 °F 64.0 °F 93% 30.12 in 2.5 mi NNE 11.5 mph - 0.01 in Rain Light Rain
6:24 PM 66.2 °F 64.4 °F 94% 30.12 in 2.0 mi North 6.9 mph - 0.00 in   Overcast
6:52 PM 66.9 °F 64.9 °F 93% 30.12 in 1.5 mi North 6.9 mph - 0.00 in   Overcast
7:52 PM 66.9 °F 64.9 °F 93% 30.11 in 1.5 mi NNW 4.6 mph - 0.01 in   Overcast
8:52 PM 66.0 °F 64.9 °F 96% 30.13 in 1.5 mi WNW 8.1 mph - N/A   Overcast
9:52 PM 64.0 °F 63.0 °F 96% 30.15 in 4.0 mi NW 12.7 mph - 0.01 in   Overcast
10:52 PM 63.0 °F 62.1 °F 97% 30.17 in 4.0 mi WNW 9.2 mph - N/A   Overcast
11:52 PM 62.1 °F 61.0 °F 96% 30.17 in 3.0 mi NW 5.8 mph - N/A   Overcast